Tracking 29528 objects as of 12-Sep-2024
HD Live streaming from Space Station
objects crossing your sky now

FENGYUN 1C DEB

Track FENGYUN 1C DEB now!
10-day predictions


NORAD ID: 29890
Int'l Code: 1999-025GL
Perigee: 824.5 km
Apogee: 846.5 km
Inclination: 99.5 °
Period: 101.5 minutes
Semi major axis: 7206 km
RCS: 0.052 m2 (small)
Launch date: May 10, 1999
Source: People's Republic of China (PRC)
Launch site: Taiyaun Space Center, China (TSC)

Note: This is SATELLITE DEBRIS
Your satellite tracking list
Your tracking list is empty




NASA's NSSDC Master Catalog

Two Line Element Set (TLE):
1 29890U 99025GL  24256.17205383  .00007370  00000-0  35403-2 0  9995
2 29890  99.4589 339.3964 0015305 269.3024  90.6396 14.19111675909648
Source of the keplerian elements: AFSPC